DW2745 Weather Reports


Display with metric or nautical units.
time (UTC)temp
F
wind
direction
speed
MPH
gust
MPH
rain 1hr
in
rain 24hr
in
rain mn
in
humidity
%
barometer
mb
20260906214041 68 5 3.0 8.0 0.00 0.00 0.00 73 1017.9
20260906213541 68 11 6.0 8.0 0.00 0.00 0.00 74 1018.0
20260906213041 68 34 4.0 8.0 0.00 0.00 0.00 74 1018.1
20260906212540 68 22 2.0 8.0 0.00 0.00 0.00 74 1018.0
20260906212041 68 40 4.0 9.0 0.00 0.00 0.00 74 1018.0
20260906211545 68 19 4.0 8.0 0.00 0.00 0.00 75 1018.0
20260906211040 68 17 4.0 9.0 0.00 0.00 0.00 75 1018.0
20260906210540 68 29 7.0 9.0 0.00 0.00 0.00 75 1018.1
20260906210107 68 28 6.0 10.0 0.00 0.00 0.00 75 1018.1
20260906205540 68 28 6.0 10.0 0.00 0.00 0.00 76 1018.1
20260906205039 68 50 5.0 10.0 0.00 0.00 0.00 77 1018.2
20260906204551 68 24 7.0 10.0 0.00 0.00 0.00 73 1018.1
20260906204039 68 63 4.0 10.0 0.00 0.00 0.00 76 1018.0
20260906203539 68 48 6.0 10.0 0.00 0.00 0.00 76 1018.0
20260906203044 68 44 7.0 13.0 0.00 0.00 0.00 74 1017.9
20260906202538 68 38 8.0 13.0 0.00 0.00 0.00 76 1018.0
20260906202041 68 55 7.0 12.0 0.00 0.00 0.00 75 1018.0
20260906201547 68 38 5.0 12.0 0.00 0.00 0.00 77 1018.0
20260906201038 68 46 6.0 12.0 0.00 0.00 0.00 77 1018.2
20260906200539 67 44 7.0 14.0 0.00 0.00 0.00 78 1018.0
20260906200040 67 22 10.0 14.0 0.00 0.00 0.00 76 1018.1
20260906195536 67 49 7.0 13.0 0.00 0.00 0.00 78 1018.2
20260906195037 67 31 8.0 13.0 0.00 0.00 0.00 76 1018.1
20260906194536 67 40 7.0 13.0 0.00 0.00 0.00 78 1018.1
20260906194036 67 27 9.0 14.0 0.00 0.00 0.00 76 1018.1
20260906193538 67 38 10.0 14.0 0.00 0.00 0.00 78 1018.1
20260906193036 67 37 11.0 14.0 0.00 0.00 0.00 78 1018.0
20260906192536 67 39 8.0 14.0 0.00 0.00 0.00 79 1018.1
20260906192036 67 44 9.0 16.0 0.00 0.00 0.00 80 1018.1
20260906191543 67 44 9.0 16.0 0.00 0.00 0.00 78 1018.1
20260906191035 67 49 9.0 14.0 0.00 0.00 0.00 78 1018.1
20260906190535 67 45 9.0 15.0 0.00 0.00 0.00 76 1018.1
20260906190035 67 51 9.0 15.0 0.00 0.00 0.00 78 1018.1
20260906185534 67 41 8.0 13.0 0.00 0.00 0.00 79 1018.1
20260906185034 67 69 7.0 16.0 0.00 0.00 0.00 78 1018.1
20260906184535 67 42 10.0 16.0 0.00 0.00 0.00 79 1018.1
20260906184038 67 42 10.0 14.0 0.00 0.00 0.00 79 1018.1
20260906183533 67 53 7.0 14.0 0.00 0.00 0.00 80 1018.1
20260906183035 67 55 8.0 13.0 0.00 0.00 0.00 80 1018.1
20260906182533 66 52 8.0 15.0 0.00 0.00 0.00 81 1018.2
20260906182033 67 38 11.0 15.0 0.00 0.00 0.00 80 1018.1
20260906181537 67 44 8.0 15.0 0.00 0.00 0.00 81 1018.1
20260906181033 67 49 9.0 16.0 0.00 0.00 0.00 80 1018.2
20260906180533 66 55 10.0 16.0 0.00 0.00 0.00 80 1018.2
20260906180052 66 65 8.0 15.0 0.00 0.00 0.00 81 1018.3
20260906175533 66 42 11.0 15.0 0.00 0.00 0.00 81 1018.2
20260906175032 66 31 9.0 13.0 0.00 0.00 0.00 82 1018.2
20260906174548 66 66 9.0 13.0 0.00 0.00 0.00 84 1018.3
20260906174032 66 54 5.0 13.0 0.00 0.00 0.00 82 1018.4
20260906173534 66 41 7.0 15.0 0.00 0.00 0.00 81 1018.4
20260906173034 66 51 11.0 15.0 0.00 0.00 0.00 82 1018.3
20260906172531 66 26 9.0 15.0 0.00 0.00 0.00 82 1018.5
20260906172031 66 77 5.0 12.0 0.00 0.00 0.00 82 1018.6
20260906171531 66 83 4.0 10.0 0.00 0.00 0.00 82 1018.5
20260906171031 66 74 2.0 13.0 0.00 0.00 0.00 82 1018.5
20260906170529 66 40 10.0 16.0 0.00 0.00 0.00 82 1018.3
20260906170030 66 50 8.0 16.0 0.00 0.00 0.00 82 1018.3
20260906165529 66 66 9.0 16.0 0.00 0.00 0.00 82 1018.3
20260906165029 66 37 11.0 15.0 0.00 0.00 0.00 83 1018.2
20260906164528 66 47 6.0 13.0 0.00 0.00 0.00 84 1018.2
20260906164027 66 27 9.0 13.0 0.00 0.00 0.00 83 1018.1
20260906163527 66 78 3.0 12.0 0.00 0.00 0.00 83 1018.2
20260906163028 66 61 3.0 10.0 0.00 0.00 0.00 82 1018.2
20260906162528 66 69 5.0 11.0 0.00 0.00 0.00 82 1018.3
20260906162028 66 45 5.0 11.0 0.00 0.00 0.00 83 1018.4
20260906161528 66 48 5.0 14.0 0.00 0.00 0.00 83 1018.4
20260906161032 66 61 4.0 14.0 0.00 0.00 0.00 82 1018.4
20260906160526 66 94 5.0 11.0 0.00 0.00 0.00 83 1018.3
20260906160028 66 51 4.0 11.0 0.00 0.00 0.00 82 1018.3
20260906155524 66 79 3.0 14.0 0.00 0.00 0.00 84 1018.2
20260906155023 66 34 7.0 14.0 0.00 0.00 0.00 84 1018.2
20260906154530 66 76 5.0 15.0 0.00 0.00 0.00 84 1018.2
20260906154021 65 53 11.0 15.0 0.00 0.00 0.00 85 1018.2
20260906153520 66 55 8.0 14.0 0.00 0.00 0.00 84 1018.1
20260906153032 65 63 6.0 15.0 0.00 0.00 0.00 83 1018.1
20260906152520 66 60 9.0 15.0 0.00 0.00 0.00 85 1018.2
20260906152020 66 76 7.0 14.0 0.00 0.00 0.00 85 1018.2
20260906151520 66 67 8.0 14.0 0.00 0.00 0.00 85 1018.2
20260906151019 66 51 9.0 13.0 0.00 0.00 0.00 84 1018.3
20260906150520 66 85 3.0 16.0 0.00 0.00 0.00 84 1018.2
20260906150024 65 67 8.0 16.0 0.00 0.00 0.00 84 1018.3
20260906145519 65 92 4.0 13.0 0.00 0.00 0.00 84 1018.2
20260906145017 65 96 5.0 13.0 0.00 0.00 0.00 85 1018.2
20260906144520 65 53 3.0 12.0 0.00 0.00 0.00 84 1018.2
20260906144017 65 63 2.0 13.0 0.00 0.00 0.00 84 1018.2
20260906143517 65 90 3.0 16.0 0.00 0.00 0.00 85 1018.2
20260906143021 65 93 10.0 16.0 0.00 0.00 0.00 87 1018.1
20260906142515 65 55 6.0 15.0 0.00 0.00 0.00 84 1018.0
20260906142017 65 49 9.0 15.0 0.00 0.00 0.00 86 1017.9
20260906141513 65 49 10.0 16.0 0.00 0.00 0.00 85 1017.8
20260906141015 65 86 3.0 15.0 0.00 0.00 0.00 87 1017.7
20260906140512 65 65 8.0 15.0 0.00 0.00 0.00 87 1017.7
20260906140017 66 75 11.0 14.0 0.00 0.00 0.00 88 1017.6
20260906135511 66 71 8.0 16.0 0.00 0.00 0.00 87 1017.6
20260906135008 66 68 9.0 15.0 0.00 0.00 0.00 87 1017.5
20260906134511 66 72 6.0 16.0 0.00 0.00 0.00 86 1017.5
20260906134007 66 25 11.0 16.0 0.00 0.00 0.00 88 1017.4
20260906133505 66 45 8.0 15.0 0.00 0.00 0.00 87 1017.4
20260906133018 66 59 9.0 16.0 0.00 0.00 0.00 87 1017.4
20260906132505 66 59 10.0 16.0 0.00 0.00 0.00 87 1017.3
20260906132004 66 42 9.0 16.0 0.00 0.00 0.00 87 1017.3
20260906131504 66 51 12.0 16.0 0.00 0.00 0.00 85 1017.3
20260906131004 66 65 10.0 15.0 0.00 0.00 0.00 86 1017.3
20260906130504 66 54 10.0 16.0 0.00 0.00 0.00 85 1017.3
20260906130006 66 45 11.0 16.0 0.00 0.00 0.00 87 1017.4
20260906125503 66 51 11.0 16.0 0.00 0.00 0.00 84 1017.3
20260906125003 66 77 12.0 17.0 0.00 0.00 0.00 86 1017.1
20260906124504 66 57 12.0 17.0 0.00 0.00 0.00 87 1017.1
20260906124002 66 63 11.0 17.0 0.00 0.00 0.00 87 1017.1
20260906123501 66 42 10.0 17.0 0.00 0.00 0.00 88 1017.1
20260906123102 66 67 12.0 17.0 0.00 0.00 0.00 88 1017.1
20260906123004 66 50 12.0 17.0 0.00 0.00 0.00 89 1017.0
20260906122600 66 78 12.0 17.0 0.00 0.00 0.00 88 1017.0
20260906122059 67 60 11.0 17.0 0.00 0.00 0.00 88 1016.9
20260906121558 66 55 9.0 16.0 0.00 0.00 0.00 88 1016.8
20260906121057 66 63 9.0 16.0 0.00 0.00 0.00 88 1016.8
20260906120556 67 59 10.0 18.0 0.00 0.00 0.00 89 1016.7
20260906120058 67 61 10.0 18.0 0.00 0.00 0.00 89 1016.7
20260906115554 67 55 11.0 19.0 0.00 0.00 0.00 88 1016.6
20260906115052 67 69 13.0 19.0 0.00 0.00 0.00 88 1016.4
20260906114552 67 58 13.0 18.0 0.00 0.00 0.00 89 1016.3
20260906114050 67 37 8.0 16.0 0.00 0.00 0.00 89 1016.3
20260906113550 67 91 6.0 18.0 0.00 0.00 0.00 90 1016.2
20260906113050 67 50 13.0 20.0 0.00 0.00 0.00 88 1016.1
20260906112549 67 65 12.0 20.0 0.00 0.00 0.00 89 1016.0
20260906112048 67 53 12.0 19.0 0.00 0.00 0.00 90 1015.9
20260906111550 67 50 11.0 18.0 0.00 0.00 0.00 91 1015.8
20260906111045 67 73 3.0 15.0 0.00 0.00 0.00 89 1015.9
20260906110544 67 79 5.0 15.0 0.00 0.00 0.00 89 1015.8
20260906110051 67 76 7.0 14.0 0.00 0.00 0.00 89 1015.8
20260906105541 67 76 3.0 8.0 0.00 0.00 0.00 88 1015.6
20260906105043 67 86 2.0 12.0 0.00 0.00 0.00 88 1015.6
20260906104538 68 85 2.0 17.0 0.00 0.00 0.00 88 1015.6
20260906104040 68 61 10.0 17.0 0.00 0.00 0.00 87 1015.5
20260906103538 68 39 7.0 14.0 0.00 0.00 0.00 86 1015.5
20260906103045 68 61 10.0 13.0 0.00 0.00 0.00 87 1015.5
20260906102539 68 63 7.0 13.0 0.00 0.00 0.00 85 1015.4
20260906102035 68 49 8.0 14.0 0.00 0.00 0.00 87 1015.4
20260906101535 68 46 7.0 12.0 0.00 0.00 0.00 86 1015.3
20260906101034 68 65 8.0 14.0 0.00 0.00 0.00 86 1015.3
20260906100535 68 55 8.0 14.0 0.00 0.00 0.00 87 1015.2
20260906100033 68 51 9.0 14.0 0.00 0.00 0.00 88 1015.1
20260906095533 68 47 10.0 14.0 0.00 0.00 0.00 86 1015.1
20260906095030 68 38 10.0 14.0 0.00 0.00 0.00 86 1015.0
20260906094529 68 46 10.0 14.0 0.00 0.00 0.00 87 1015.0
20260906094028 68 65 8.0 12.0 0.00 0.00 0.00 86 1015.0
20260906093531 68 60 7.0 13.0 0.00 0.00 0.00 85 1014.9
20260906093036 68 57 9.0 13.0 0.00 0.00 0.00 86 1014.9
20260906092526 68 36 8.0 12.0 0.00 0.00 0.00 86 1014.7
20260906092033 68 36 8.0 12.0 0.00 0.00 0.00 87 1014.7
20260906091525 68 32 8.0 13.0 0.00 0.00 0.00 85 1014.5
20260906091024 68 40 10.0 14.0 0.00 0.00 0.00 86 1014.4
20260906090523 68 40 10.0 14.0 0.00 0.00 0.00 86 1014.2
20260906090037 68 40 10.0 14.0 0.00 0.00 0.00 86 1014.3
20260906085523 69 59 8.0 15.0 0.00 0.00 0.00 86 1014.2
20260906085021 69 50 10.0 16.0 0.00 0.00 0.00 86 1014.2
20260906084521 69 44 12.0 15.0 0.00 0.00 0.00 86 1014.2
20260906084022 69 55 11.0 14.0 0.00 0.00 0.00 87 1014.2
20260906083520 69 42 9.0 14.0 0.00 0.00 0.00 87 1014.1
20260906083023 69 32 10.0 14.0 0.00 0.00 0.00 88 1014.1
20260906082520 69 21 11.0 15.0 0.00 0.00 0.00 88 1014.0
20260906082023 69 27 11.0 15.0 0.00 0.00 0.00 88 1014.1
20260906081519 69 25 10.0 12.0 0.00 0.00 0.00 88 1014.1
20260906081019 69 44 10.0 12.0 0.00 0.00 0.00 87 1014.1
20260906080519 69 21 10.0 12.0 0.00 0.00 0.00 87 1014.1
20260906080019 69 9 10.0 13.0 0.00 0.00 0.00 87 1014.1
20260906075517 69 11 9.0 13.0 0.00 0.00 0.00 87 1014.1
20260906075018 69 5 10.0 12.0 0.00 0.00 0.00 87 1014.1
20260906074516 69 25 10.0 13.0 0.00 0.00 0.00 87 1014.1
20260906074016 69 27 10.0 13.0 0.00 0.00 0.00 87 1014.0
20260906073514 69 28 9.0 12.0 0.00 0.00 0.00 85 1014.0
20260906073014 69 28 9.0 12.0 0.00 0.00 0.00 84 1014.0
20260906072514 69 19 9.0 13.0 0.00 0.00 0.00 85 1014.0
20260906072017 69 41 9.0 13.0 0.00 0.00 0.00 84 1014.0
20260906071514 69 46 8.0 13.0 0.00 0.00 0.00 84 1014.0
20260906071013 69 37 9.0 13.0 0.00 0.00 0.00 85 1014.0
20260906070515 69 23 9.0 13.0 0.00 0.00 0.00 85 1014.0
20260906070012 69 37 9.0 12.0 0.00 0.00 0.00 84 1014.0
20260906065512 69 34 9.0 12.0 0.00 0.00 0.00 84 1014.0
20260906065010 70 40 9.0 12.0 0.00 0.00 0.00 85 1014.1
20260906064511 69 27 8.0 11.0 0.00 0.00 0.00 84 1014.1
20260906064011 70 24 9.0 11.0 0.00 0.00 0.00 84 1014.1
20260906063510 70 12 9.0 11.0 0.00 0.00 0.00 83 1014.1
20260906063011 69 26 8.0 11.0 0.00 0.00 0.00 83 1014.1
20260906062512 69 40 6.0 10.0 0.00 0.00 0.00 83 1014.0
20260906062010 70 40 6.0 10.0 0.00 0.00 0.00 83 1014.1
20260906061510 70 13 5.0 11.0 0.00 0.00 0.00 83 1014.0
20260906061010 70 26 6.0 11.0 0.00 0.00 0.00 83 1014.1
20260906060509 70 40 8.0 12.0 0.00 0.00 0.00 82 1014.1
20260906060009 70 30 8.0 12.0 0.00 0.00 0.00 84 1014.1
20260906055512 70 40 6.0 10.0 0.00 0.00 0.00 84 1014.0
20260906055008 70 33 7.0 10.0 0.00 0.00 0.00 83 1014.1
20260906054508 70 34 6.0 11.0 0.00 0.00 0.00 83 1014.0
20260906054008 70 71 5.0 10.0 0.00 0.00 0.00 82 1014.0
20260906053507 70 61 5.0 11.0 0.00 0.00 0.00 81 1014.1
20260906053008 70 54 7.0 13.0 0.00 0.00 0.00 82 1014.0
20260906052507 70 55 5.0 13.0 0.00 0.00 0.00 81 1014.1
20260906052011 70 51 8.0 13.0 0.00 0.00 0.00 83 1014.2
20260906051507 70 53 9.0 13.0 0.00 0.00 0.00 82 1014.2
20260906051006 70 55 8.0 13.0 0.00 0.00 0.00 81 1014.1
20260906050506 70 42 8.0 13.0 0.00 0.00 0.00 82 1014.1
20260906050005 70 39 10.0 15.0 0.00 0.00 0.00 81 1014.1
20260906045505 70 62 11.0 16.0 0.00 0.00 0.00 80 1014.0
20260906045005 70 33 11.0 16.0 0.00 0.00 0.00 81 1014.0
20260906044502 71 32 11.0 16.0 0.00 0.00 0.00 82 1014.0
20260906044004 71 30 12.0 16.0 0.00 0.00 0.00 83 1013.9
20260906043501 71 39 11.0 16.0 0.00 0.00 0.00 82 1013.9
20260906043002 71 44 12.0 16.0 0.00 0.00 0.00 80 1013.9
20260906042501 71 40 11.0 16.0 0.00 0.00 0.00 80 1013.9
20260906042001 71 44 11.0 16.0 0.00 0.00 0.00 79 1013.9
20260906041605 71 56 12.0 15.0 0.00 0.00 0.00 79 1013.9
20260906041100 71 28 12.0 15.0 0.00 0.00 0.00 78 1013.9
20260906040601 71 43 11.0 16.0 0.00 0.00 0.00 79 1013.8
20260906040058 71 48 11.0 18.0 0.00 0.00 0.00 82 1013.9
20260906035557 71 43 13.0 18.0 0.00 0.00 0.00 81 1013.8
20260906035057 71 22 12.0 14.0 0.00 0.00 0.00 84 1013.8
20260906034620 71 22 11.0 15.0 0.00 0.00 0.00 84 1013.7
20260906034056 71 44 10.0 15.0 0.00 0.00 0.00 82 1013.8
20260906033557 71 36 12.0 15.0 0.00 0.00 0.00 82 1013.9
20260906033056 71 18 11.0 14.0 0.00 0.00 0.00 83 1013.8
20260906032555 71 19 11.0 14.0 0.00 0.00 0.00 84 1013.7
20260906032056 71 17 11.0 14.0 0.00 0.00 0.00 83 1013.8
20260906031554 71 20 11.0 14.0 0.00 0.00 0.00 84 1013.7
20260906031055 71 24 11.0 14.0 0.00 0.00 0.00 85 1013.7
20260906030555 71 14 10.0 13.0 0.00 0.00 0.00 84 1013.6
20260906030055 71 17 11.0 13.0 0.00 0.00 0.00 84 1013.6
20260906025554 71 351 9.0 13.0 0.00 0.00 0.00 84 1013.6
20260906025057 71 5 10.0 12.0 0.00 0.00 0.00 84 1013.6
20260906024553 71 355 10.0 12.0 0.00 0.00 0.00 84 1013.5
20260906024053 71 5 9.0 11.0 0.00 0.00 0.00 83 1013.5
20260906023553 71 355 9.0 11.0 0.00 0.00 0.00 84 1013.5
20260906023053 71 355 9.0 11.0 0.00 0.00 0.00 84 1013.4
20260906022552 71 355 8.0 11.0 0.00 0.00 0.00 84 1013.4
20260906022052 71 344 7.0 10.0 0.00 0.00 0.00 85 1013.4
20260906021553 71 346 7.0 10.0 0.00 0.00 0.00 86 1013.5
20260906021056 71 340 5.0 9.0 0.00 0.00 0.00 85 1013.4
20260906020552 71 337 6.0 10.0 0.00 0.00 0.00 84 1013.5
20260906020059 71 321 6.0 10.0 0.00 0.00 0.00 83 1013.5
20260906015551 71 331 5.0 10.0 0.00 0.00 0.00 84 1013.5
20260906015051 71 355 8.0 10.0 0.00 0.00 0.00 83 1013.4
20260906014551 70 317 7.0 10.0 0.00 0.00 0.00 81 1013.5
20260906014050 71 325 8.0 10.0 0.00 0.00 0.00 83 1013.4
20260906013552 71 355 7.0 10.0 0.00 0.00 0.00 83 1013.4
20260906013102 70 338 8.0 10.0 0.00 0.00 0.00 82 1013.3
20260906012549 70 340 8.0 10.0 0.00 0.00 0.00 83 1013.3
20260906012052 70 315 7.0 10.0 0.00 0.00 0.00 84 1013.3
20260906011550 70 344 5.0 9.0 0.00 0.00 0.00 84 1013.4
20260906011049 70 317 5.0 9.0 0.00 0.00 0.00 83 1013.4
20260906010550 70 327 5.0 10.0 0.00 0.00 0.00 84 1013.4
20260906010052 70 312 6.0 10.0 0.00 0.00 0.00 83 1013.4
20260906005549 70 311 6.0 9.0 0.00 0.00 0.00 82 1013.4
20260906005049 70 336 7.0 12.0 0.00 0.00 0.00 82 1013.3
20260906004549 70 327 5.0 12.0 0.00 0.00 0.00 82 1013.2
20260906004048 70 322 6.0 9.0 0.00 0.00 0.00 83 1013.1
20260906003549 70 318 5.0 8.0 0.00 0.00 0.00 82 1013.1
20260906003049 70 328 5.0 9.0 0.00 0.00 0.00 82 1013.2
20260906002548 70 333 4.0 9.0 0.00 0.00 0.00 83 1013.3
20260906002050 70 319 5.0 9.0 0.00 0.00 0.00 82 1013.3
20260906001548 70 322 5.0 9.0 0.00 0.00 0.00 84 1013.4
20260906001051 70 306 5.0 8.0 0.00 0.00 0.00 83 1013.4
20260906000548 70 312 5.0 9.0 0.00 0.00 0.00 83 1013.3
20260906000057 70 306 6.0 9.0 0.00 0.00 0.00 83 1013.3
20260905235548 70 312 5.0 8.0 0.00 0.00 0.00 83 1013.4
20260905235048 70 320 5.0 8.0 0.00 0.00 0.00 83 1013.4
20260905234556 70 298 6.0 9.0 0.00 0.00 0.00 83 1013.4
20260905234047 69 302 6.0 9.0 0.00 0.00 0.00 83 1013.3
20260905233547 69 316 4.0 9.0 0.00 0.00 0.00 83 1013.2
20260905233048 69 321 5.0 8.0 0.00 0.00 0.00 83 1013.3
20260905232547 69 326 4.0 6.0 0.00 0.00 0.00 83 1013.3
20260905232047 69 313 4.0 6.0 0.00 0.00 0.00 83 1013.1
20260905231547 69 306 4.0 8.0 0.00 0.00 0.00 84 1013.1
20260905231046 70 281 4.0 6.0 0.00 0.00 0.00 84 1013.2
20260905230546 70 319 4.0 6.0 0.00 0.00 0.00 84 1013.2
20260905230047 70 311 4.0 6.0 0.00 0.00 0.00 83 1013.3
20260905225547 69 309 3.0 7.0 0.00 0.00 0.00 83 1013.1
20260905225045 69 298 3.0 7.0 0.00 0.00 0.00 83 1013.3
20260905224547 69 317 4.0 6.0 0.00 0.00 0.00 83 1013.3
20260905224046 69 329 4.0 6.0 0.00 0.00 0.00 83 1013.4
20260905223544 69 315 4.0 6.0 0.00 0.00 0.00 82 1013.3
20260905223049 70 314 3.0 6.0 0.00 0.00 0.00 82 1013.3
20260905222545 70 318 4.0 6.0 0.00 0.00 0.00 81 1013.4
20260905222044 70 328 4.0 6.0 0.00 0.00 0.00 81 1013.3
20260905221543 70 327 3.0 6.0 0.00 0.00 0.00 81 1013.2
20260905221046 70 347 4.0 6.0 0.00 0.00 0.00 82 1013.3
20260905220544 70 331 4.0 6.0 0.00 0.00 0.00 83 1013.2
20260905220043 70 308 3.0 6.0 0.00 0.00 0.00 82 1013.1
20260905215543 70 340 3.0 5.0 0.00 0.00 0.00 81 1013.2
20260905215041 70 350 3.0 6.0 0.00 0.00 0.00 82 1013.1
20260905214542 70 329 4.0 6.0 0.00 0.00 0.00 83 1013.0